Weather History for Camdenton, MO

Change the Weather History Date:

Thursday, January 3, 2013

  Actual Average (KAIZ) Record (KAIZ)
Temperature  
Mean Temperature 30 °F -  
Max Temperature 37 °F 40 °F 71 °F (1997)
Min Temperature 23 °F 24 °F 0 °F (2014)
Degree Days  
Heating Degree Days 35    
Moisture  
Dew Point 23 °F    
Average Humidity 76    
Maximum Humidity 100    
Minimum Humidity 56    
Precipitation  
Precipitation 0.00 in - - ()
Sea Level Pressure  
Sea Level Pressure 30.34 in    
Wind  
Wind Speed 6 mph (WSW)    
Max Wind Speed 9 mph    
Max Gust Speed -    
Visibility 10 miles    
Events      
Averages and records for this station are not official NWS values.
T = Trace of Precipitation, MM = Missing Value Source: NWS Daily Summary

Daily Weather History Graph

Daily Weather History Graph

Search for Another Location

Airport:

Trip Planner

Search our weather history database for the weather conditions in past years. The results will help you decide how hot, cold, wet, or windy it might be!

Date:

Astronomy

Jan. 03, 2013 Rise Set
Actual Time 7:27 AM CST 5:04 PM CST
Civil Twilight 6:57 AM CST 5:33 PM CST
Nautical Twilight 6:24 AM CST 6:06 PM CST
Astronomical Twilight 5:52 AM CST 6:38 PM CST
Moon 11:32 PM CST (1/3) 10:45 AM CST (1/3)
Length of Visible Light 10h 35m
Length of Day
9h 37m
Waning Gibbous, 65% of the Moon is Illuminated
Jan 3
Waning Gibbous
Jan 4
Last Quarter
Jan 11
New
Jan 18
First Quarter
Jan 26
Full

Hourly Weather History & Observations

Time (CST) Temp. Windchill Dew Point Humidity Pressure Visibility Wind Dir Wind Speed Gust Speed Precip Events Conditions
12:15 AM 28.4 °F 22.2 °F 21.2 °F 74% 30.23 in 10.0 mi WSW 5.8 mph - N/A   Scattered Clouds
12:35 AM 28.4 °F 22.2 °F 21.2 °F 74% 30.23 in 10.0 mi SW 5.8 mph - N/A   Scattered Clouds
12:55 AM 28.4 °F 21.2 °F 21.2 °F 74% 30.23 in 10.0 mi WSW 6.9 mph - N/A   Clear
1:15 AM 28.4 °F 21.2 °F 21.2 °F 74% 30.24 in 10.0 mi WSW 6.9 mph - N/A   Clear
1:35 AM 26.6 °F 20.0 °F 21.2 °F 80% 30.24 in 10.0 mi WSW 5.8 mph - N/A   Clear
1:55 AM 26.6 °F 18.2 °F 21.2 °F 80% 30.25 in 10.0 mi West 8.1 mph - N/A   Clear
2:15 AM 26.6 °F 19.1 °F 21.2 °F 80% 30.25 in 10.0 mi West 6.9 mph - N/A   Clear
2:35 AM 26.6 °F 19.1 °F 21.2 °F 80% 30.25 in 10.0 mi West 6.9 mph - N/A   Clear
2:55 AM 26.6 °F 19.1 °F 21.2 °F 80% 30.26 in 10.0 mi West 6.9 mph - N/A   Clear
3:15 AM 24.8 °F 20.5 °F 21.2 °F 86% 30.26 in 10.0 mi West 3.5 mph - N/A   Clear
3:35 AM 24.8 °F 16.9 °F 23.0 °F 93% 30.26 in 10.0 mi West 6.9 mph - N/A   Clear
3:55 AM 24.8 °F 17.9 °F 23.0 °F 93% 30.26 in 10.0 mi West 5.8 mph - N/A   Clear
4:15 AM 24.8 °F 17.9 °F 23.0 °F 93% 30.26 in 10.0 mi West 5.8 mph - N/A   Mostly Cloudy
4:35 AM 26.6 °F 20.0 °F 24.8 °F 93% 30.27 in 10.0 mi West 5.8 mph - N/A   Overcast
4:55 AM 26.6 °F 20.0 °F 23.0 °F 86% 30.28 in 10.0 mi West 5.8 mph - N/A   Overcast
5:15 AM 26.6 °F 19.1 °F 23.0 °F 86% 30.28 in 7.0 mi WSW 6.9 mph - N/A   Mostly Cloudy
5:35 AM 24.8 °F 16.9 °F 23.0 °F 93% 30.28 in 7.0 mi WSW 6.9 mph - N/A   Scattered Clouds
5:55 AM 23.0 °F - 23.0 °F 100% 30.30 in 7.0 mi Calm Calm - N/A   Clear
6:15 AM 23.0 °F 18.4 °F 23.0 °F 100% 30.31 in 7.0 mi SSW 3.5 mph - N/A   Clear
6:35 AM 23.0 °F 17.0 °F 23.0 °F 100% 30.32 in 7.0 mi SSW 4.6 mph - N/A   Clear
6:55 AM 23.0 °F 18.4 °F 23.0 °F 100% 30.33 in 7.0 mi SW 3.5 mph - N/A   Clear
7:15 AM 23.0 °F 14.7 °F 23.0 °F 100% 30.34 in 7.0 mi SW 6.9 mph - N/A   Clear
7:35 AM 23.0 °F 14.7 °F 23.0 °F 100% 30.34 in 7.0 mi SW 6.9 mph - N/A   Clear
7:55 AM 23.0 °F 14.7 °F 23.0 °F 100% 30.34 in 7.0 mi SW 6.9 mph - N/A   Clear
8:15 AM 24.8 °F 16.9 °F 24.8 °F 100% 30.34 in 7.0 mi WSW 6.9 mph - N/A   Clear
8:35 AM 26.6 °F 19.1 °F 24.8 °F 93% 30.35 in 7.0 mi SW 6.9 mph - N/A   Clear
8:55 AM 28.4 °F 22.2 °F 24.8 °F 86% 30.35 in 7.0 mi SW 5.8 mph - N/A   Clear
9:35 AM 30.2 °F 22.6 °F 24.8 °F 80% 30.37 in 10.0 mi WSW 8.1 mph - N/A   Clear
9:55 AM 30.2 °F 24.3 °F 24.8 °F 80% 30.38 in 10.0 mi WSW 5.8 mph - N/A   Clear
10:15 AM 32.0 °F 24.8 °F 24.8 °F 75% 30.39 in 10.0 mi WSW 8.1 mph - N/A   Clear
10:35 AM 32.0 °F 26.4 °F 26.6 °F 80% 30.39 in 10.0 mi West 5.8 mph - N/A   Clear
10:55 AM 32.0 °F 24.8 °F 24.8 °F 75% 30.39 in 10.0 mi West 8.1 mph - N/A   Clear
11:15 AM 33.8 °F 28.6 °F 26.6 °F 75% 30.38 in 10.0 mi WSW 5.8 mph - N/A   Clear
11:35 AM 33.8 °F 27.0 °F 26.6 °F 75% 30.38 in 10.0 mi West 8.1 mph - N/A   Clear
11:55 AM 35.6 °F 29.9 °F 26.6 °F 70% 30.37 in 10.0 mi West 6.9 mph - N/A   Clear
12:15 PM 35.6 °F 28.6 °F 24.8 °F 65% 30.36 in 10.0 mi West 9.2 mph - N/A   Clear
12:35 PM 35.6 °F 30.7 °F 23.0 °F 60% 30.36 in 10.0 mi WSW 5.8 mph - N/A   Scattered Clouds
12:55 PM 35.6 °F 29.2 °F 24.8 °F 65% 30.36 in 10.0 mi West 8.1 mph - N/A   Scattered Clouds
1:15 PM 35.6 °F 29.2 °F 23.0 °F 60% 30.35 in 10.0 mi WNW 8.1 mph - N/A   Scattered Clouds
1:35 PM 35.6 °F 30.7 °F 23.0 °F 60% 30.35 in 10.0 mi WNW 5.8 mph - N/A   Scattered Clouds
1:55 PM 35.6 °F 28.6 °F 23.0 °F 60% 30.34 in 10.0 mi WNW 9.2 mph - N/A   Scattered Clouds
2:15 PM 35.6 °F 32.8 °F 23.0 °F 60% 30.34 in 10.0 mi WSW 3.5 mph - N/A   Scattered Clouds
2:35 PM 37.4 °F 31.4 °F 23.0 °F 56% 30.35 in 10.0 mi WNW 8.1 mph - N/A   Scattered Clouds
2:55 PM 35.6 °F 29.2 °F 23.0 °F 60% 30.35 in 10.0 mi WNW 8.1 mph - N/A   Scattered Clouds
3:15 PM 35.6 °F 29.2 °F 23.0 °F 60% 30.35 in 10.0 mi WNW 8.1 mph - N/A   Mostly Cloudy
3:55 PM 35.6 °F 29.9 °F 23.0 °F 60% 30.36 in 10.0 mi WNW 6.9 mph - N/A   Overcast
4:15 PM 35.6 °F 30.7 °F 24.8 °F 65% 30.36 in 10.0 mi WNW 5.8 mph - N/A   Overcast
4:35 PM 35.6 °F 29.9 °F 23.0 °F 60% 30.36 in 10.0 mi West 6.9 mph - N/A   Overcast
4:55 PM 35.6 °F 31.7 °F 23.0 °F 60% 30.36 in 10.0 mi West 4.6 mph - N/A   Overcast
5:15 PM 33.8 °F 28.6 °F 23.0 °F 65% 30.37 in 10.0 mi West 5.8 mph - N/A   Overcast
5:35 PM 33.8 °F 30.8 °F 23.0 °F 65% 30.37 in 10.0 mi West 3.5 mph - N/A   Scattered Clouds
5:55 PM 33.8 °F 30.8 °F 23.0 °F 65% 30.38 in 10.0 mi SW 3.5 mph - N/A   Clear
6:15 PM 33.8 °F 30.8 °F 23.0 °F 65% 30.39 in 10.0 mi SW 3.5 mph - N/A   Clear
6:35 PM 32.0 °F 28.7 °F 23.0 °F 69% 30.39 in 10.0 mi West 3.5 mph - N/A   Clear
6:55 PM 32.0 °F 28.7 °F 21.2 °F 64% 30.39 in 10.0 mi WSW 3.5 mph - N/A   Clear
7:15 PM 32.0 °F - 23.0 °F 69% 30.39 in 10.0 mi Calm Calm - N/A   Scattered Clouds
7:35 PM 32.0 °F 28.7 °F 23.0 °F 69% 30.39 in 10.0 mi WSW 3.5 mph - N/A   Overcast
7:55 PM 32.0 °F 28.7 °F 23.0 °F 69% 30.39 in 10.0 mi WSW 3.5 mph - N/A   Overcast
8:15 PM 32.0 °F 28.7 °F 23.0 °F 69% 30.39 in 10.0 mi West 3.5 mph - N/A   Overcast
8:35 PM 32.0 °F 27.5 °F 23.0 °F 69% 30.39 in 10.0 mi West 4.6 mph - N/A   Overcast
8:55 PM 32.0 °F 28.7 °F 23.0 °F 69% 30.39 in 10.0 mi WSW 3.5 mph - N/A   Overcast
9:15 PM 32.0 °F 26.4 °F 23.0 °F 69% 30.39 in 10.0 mi West 5.8 mph - N/A   Overcast
9:35 PM 32.0 °F 27.5 °F 23.0 °F 69% 30.39 in 10.0 mi West 4.6 mph - N/A   Overcast
9:55 PM 32.0 °F 27.5 °F 23.0 °F 69% 30.39 in 10.0 mi West 4.6 mph - N/A   Overcast
10:15 PM 32.0 °F 28.7 °F 23.0 °F 69% 30.39 in 10.0 mi WNW 3.5 mph - N/A   Overcast
10:35 PM 32.0 °F - 23.0 °F 69% 30.39 in 10.0 mi Calm Calm - N/A   Overcast
10:55 PM 32.0 °F - 24.8 °F 75% 30.39 in 10.0 mi Calm Calm - N/A   Overcast
11:15 PM 32.0 °F - 24.8 °F 75% 30.39 in 10.0 mi Calm Calm - N/A   Overcast
11:35 PM 32.0 °F - 24.8 °F 75% 30.39 in 10.0 mi Calm Calm - N/A   Overcast
11:55 PM 32.0 °F - 24.8 °F 75% 30.39 in 10.0 mi Calm Calm - N/A   Overcast